Location: Newark
(44.6394°N, 22.2943°E)
Time: 15:36:02
(UTC+00:00)

ISS - Visible Passes

Search period start: 23 September 2023 00:00
Search period end: 03 October 2023 00:00
Orbit: 414 x 422 km, 51.6° (Epoch: 23 September)

Date Brightness Start Highest point End Pass type
(mag) Time Alt. Az. Time Alt. Az. Time Alt. Az.
23 Sep -1.9 17:16:49 10° WNW 17:19:38 24° N 17:22:27 10° NE visible
23 Sep -1.4 18:54:01 10° NW 18:55:41 22° NNW 18:55:41 22° NNW visible
24 Sep -2.3 18:06:02 10° NW 18:08:56 27° N 18:09:28 25° NNE visible
25 Sep -2.0 17:17:55 10° NW 17:20:44 24° N 17:23:13 12° ENE visible
25 Sep -1.3 18:54:42 10° NW 18:56:08 23° NW 18:56:08 23° NW visible
26 Sep -2.9 18:06:41 10° NW 18:09:51 39° NNE 18:09:52 39° NNE visible
27 Sep -2.5 17:18:37 10° NW 17:21:39 31° NNE 17:23:37 17° ENE visible
27 Sep -1.1 18:55:17 10° WNW 18:56:32 21° WNW 18:56:32 21° WNW visible
28 Sep -3.7 18:07:09 10° WNW 18:10:17 72° NNW 18:10:17 72° NNW visible
29 Sep -3.4 17:19:01 10° NW 17:22:19 52° NNE 17:24:04 24° E visible
29 Sep -0.8 18:56:03 10° W 18:56:59 16° W 18:56:59 16° W visible
30 Sep -2.9 18:07:38 10° WNW 18:10:48 42° SW 18:10:48 42° SW visible
01 Oct -3.6 17:19:20 10° WNW 17:22:40 71° SSW 17:24:41 22° SE visible
02 Oct -1.4 18:08:34 10° W 18:10:49 17° SW 18:11:34 16° SSW visible
